[[{"header":{"parameterUnit":"m.s-1","parameterCategory":1,"la1":30.2991,"la2":30.254,"lo1":-89.0895,"lo2":-89.0444,"dy":0.0017,"dx":0.0017,"nx":28,"ny":28,"refTime":"2025-09-01T09:00:00:Z","depth":0,"parameterNumber":2,"parameterNumberName":"U-component_of_WINDS"},"data":[0,0,0,0,0,0,0,0,0,0,0,0,0,0,0,0,0,0,0,0,0,0,0,0,0,0,0,0,0,0,0,0,0,0,0,0,0,0,0,0,0,0,0,0,0,0,0,0,0,0,0,0,0,0,0,0,0,0,-3.1192,-3.1192,0,-3.1195,-3.1195,-3.1195,-3.1076,-3.1073,-3.107,-3.1067,-3.1071,-3.1073,-3.1076,0,0,0,0,0,0,0,0,0,0,0,0,0,-3.1084,-3.1087,-3.1192,-3.1192,-3.1192,-3.1195,-3.1195,-3.1195,-3.1077,-3.1073,-3.1069,-3.1066,-3.107,-3.1073,-3.1077,0,0,0,0,0,0,0,0,0,0,0,0,0,-3.1114,-3.1088,-3.1192,-3.1134,-3.1128,-3.1195,-3.1195,-3.1195,-3.1078,-3.1073,-3.1068,-3.1064,-3.1068,-3.1073,-3.1077,-3.12,0,0,-3.1091,-3.1093,0,0,0,0,0,0,0,0,-3.1112,-3.1118,-3.1142,-3.1138,-3.1132,-3.113,-3.1158,-3.1197,-3.1079,-3.1097,-3.1067,-3.1062,-3.1094,-3.1096,-3.1107,-3.12,-3.12,-3.1091,-3.1094,-3.1096,-3.1097,0,0,0,0,0,0,0,-3.111,-3.1117,-3.1193,-3.1143,-3.1137,-3.1107,-3.1106,-3.1165,-3.1122,-3.1095,-3.1087,-3.1088,-3.1091,-3.1103,-3.1107,-3.12,-3.1091,-3.1095,-3.1098,-3.11,-3.1392,-3.1397,0,0,0,0,0,0,-3.1116,-3.1116,-3.1193,-3.1193,-3.111,-3.1113,-3.1112,-3.1136,-3.1121,-3.1114,-3.1092,-3.1083,-3.1098,-3.1101,-3.1106,-3.1247,-3.1096,-3.11,-3.1103,-3.1387,-3.1393,-3.1398,0,0,0,0,0,0,-3.1114,-3.1124,-3.1193,-3.1152,-3.1159,-3.112,-3.1148,-3.1138,-3.1151,-3.1119,-3.1111,-3.1113,-3.1094,-3.11,-3.1177,-3.1246,-3.1102,-3.1107,-3.1381,-3.1389,-3.1396,-3.1532,0,0,0,0,0,0,-3.1112,-3.1124,-3.1171,-3.1154,-3.1162,-3.1264,-3.1152,-3.1142,-3.1159,-3.1146,-3.1136,-3.113,-3.1091,-3.1171,-3.1182,-3.1249,-3.111,-3.1375,-3.1384,-3.1393,-3.1521,-3.1543,-3.1562,0,0,0,0,0,-3.1108,-3.121,-3.1174,-3.1184,-3.1219,-3.1269,-3.1273,-3.1225,-3.1165,-3.1211,-3.119,-3.1131,-3.1237,-3.118,-3.1191,-3.1261,-3.137,-3.1382,-3.1393,-3.1512,-3.1539,-3.1562,0,0,0,0,0,0,-3.1236,-3.1206,-3.1166,-3.1265,-3.127,-3.1248,-3.1305,-3.1255,-3.1278,-3.1265,-3.1206,-3.1204,-3.1291,-3.1284,-3.1221,-3.1378,-3.1293,-3.1307,-3.138,-3.1405,-3.1425,-3.1425,-3.1114,0,0,0,0,0,-3.1275,-3.1318,-3.129,-3.138,-3.1385,-3.1345,-3.1365,-3.1328,-3.1331,-3.1332,-3.1317,-3.1323,-3.1357,-3.1381,-3.141,-3.152,-3.1515,-3.1574,-3.1594,-3.1611,-3.1624,-3.1679,-3.1705,-3.1436,-3.1435,-3.1435,0,0,-3.1358,-3.1347,-3.1378,-3.1405,-3.1405,-3.145,-3.1348,-3.14,-3.1433,-3.134,-3.1411,-3.1401,-3.1403,-3.1496,-3.1537,-3.1493,-3.1697,-3.1625,-3.1639,-3.1642,-3.1694,-3.1719,-3.1742,-3.1443,-3.1442,-3.1441,0,0,-3.153,-3.1527,-3.16,-3.1602,-3.1602,-3.1575,-3.1593,-3.1578,-3.1568,-3.1638,-3.1569,-3.1607,-3.1668,-3.1672,-3.1682,-3.1855,-3.18,-3.1866,-3.1973,-3.2028,-3.2049,-3.2068,-3.2128,-3.2151,-3.1879,-3.1879,-3.188,0,-3.1632,-3.1698,-3.1645,-3.1702,-3.1715,-3.1633,-3.1707,-3.1711,-3.1721,-3.1732,-3.1683,-3.1757,-3.1752,-3.1845,-3.1887,-3.1898,-3.1916,-3.1867,-3.2051,-3.2068,-3.2085,-3.2142,-3.2165,-3.1887,-3.1886,-3.1886,-3.1885,0,-3.1822,-3.1869,-3.1928,-3.1939,-3.196,-3.2025,-3.1982,-3.2009,-3.197,-3.1948,-3.2021,-3.2012,-3.2038,-3.2058,-3.2021,-3.2145,-3.2118,-3.2061,-3.1973,-3.2119,-3.2172,-3.2193,-3.1899,-3.1896,-3.1894,-3.1892,0,0,-3.2075,-3.2055,-3.2078,-3.2081,-3.2075,-3.211,-3.2171,-3.2196,-3.222,-3.223,-3.2279,-3.2332,-3.2279,-3.229,-3.2253,-3.2302,-3.2438,-3.2238,-3.2237,-3.2274,-3.2572,-3.2614,-3.2641,-3.2402,-3.2406,-3.2409,-3.2572,0,-3.2241,-3.2344,-3.2298,-3.2405,-3.2447,-3.2369,-3.2422,-3.2424,-3.2405,-3.2437,-3.2416,-3.2454,-3.2382,-3.2388,-3.2432,-3.2412,-3.2496,-3.2399,-3.2446,-3.2448,-3.2447,-3.2668,-3.2713,-3.2867,-3.2592,-3.2595,-3.2598,0,-3.2449,-3.2466,-3.2578,-3.2563,-3.2578,-3.2627,-3.2645,-3.2678,-3.2678,-3.2661,-3.2673,-3.2624,-3.2683,-3.2597,-3.2676,-3.2611,-3.2627,-3.262,-3.2625,-3.2627,-3.2531,-3.2675,-3.2915,-3.2938,-3.263,-3.2627,-3.2625,0,-3.262,-3.2672,-3.2744,-3.275,-3.2735,-3.2771,-3.2766,-3.2762,-3.2779,-3.2796,-3.2806,-3.283,-3.2842,-3.2862,-3.282,-3.2762,-3.2905,-3.2816,-3.2892,-3.2893,-3.2924,-3.2923,-3.317,-3.2938,-3.2937,-3.2937,-3.2936,0,-3.281,-3.2881,-3.2821,-3.2866,-3.2943,-3.2889,-3.2967,-3.2954,-3.295,-3.2991,-3.2926,-3.2965,-3.2909,-3.2943,-3.2911,-3.2981,-3.2987,-3.2974,-3.2965,-3.298,-3.2981,-3.2989,-3.2977,-3.2943,-3.2942,-3.294,-3.2939,0,-3.3014,-3.2977,-3.3051,-3.303,-3.3026,-3.3084,-3.3066,-3.3106,-3.3082,-3.3135,-3.3144,-3.3107,-3.3143,-3.3104,-3.3138,-3.3117,-3.321,-3.3186,-3.321,-3.3203,-3.328,-3.3273,-3.354,-3.3572,-3.332,-3.3323,-3.3325,0,-3.3137,-3.3189,-3.3174,-3.3196,-3.3195,-3.3232,-3.3249,-3.3198,-3.3219,-3.3222,-3.3262,-3.3293,-3.3315,-3.3377,-3.3353,-3.3379,-3.3354,-3.3445,-3.3357,-3.337,-3.3353,-3.335,-3.3355,-3.3463,-3.3466,-3.3469,-3.3471,0,-3.3358,-3.3337,-3.3364,-3.3385,-3.3407,-3.3421,-3.343,-3.3453,-3.3399,-3.3426,-3.3462,-3.3479,-3.3513,-3.3544,-3.3563,-3.3558,-3.3506,-3.3499,-3.3517,-3.3532,-3.3544,-3.3537,-3.3258,-3.3493,-3.349,-3.3489,-3.3488,-3.3487,-3.3524,-3.3567,-3.3562,-3.3594,-3.3595,-3.3605,-3.3642,-3.3622,-3.3651,-3.3674,-3.3643,-3.3687,-3.3685,-3.3704,-3.3706,-3.374,-3.3701,-3.3728,-3.3735,-3.3742,-3.3753,-3.3539,-3.3743,-3.3742,-3.3742,-3.3741,-3.3741,0,-3.3741,-3.3734,-3.3764,-3.3778,-3.3804,-3.3752,-3.3759,-3.3783,-3.3823,-3.3826,-3.3848,-3.3889,-3.3919,-3.3898,-3.3923,-3.3954,-3.3931,-3.3962,-3.3959,-3.3958,-3.3787,-3.3768,-3.3981,-3.3981,-3.3981,-3.398,-3.398,-3.398,-3.3857,-3.3926,-3.3904,-3.3972,-3.3964,-3.4007,-3.4016,-3.4024,-3.4025,-3.4074,-3.4098,-3.4084,-3.4076,-3.41,-3.4125,-3.4118,-3.4129,-3.417,-3.4154,-3.3994,-3.3971,-3.3948,-3.393,-3.4173,-3.4173,-3.4322,-3.4323,-3.4324]},{"header":{"parameterUnit":"m.s-1","parameterCategory":1,"la1":30.2991,"la2":30.254,"lo1":-89.0895,"lo2":-89.0444,"dy":0.0017,"dx":0.0017,"nx":28,"ny":28,"refTime":"2025-09-01T09:00:00:Z","depth":0,"parameterNumber":3,"parameterNumberName":"V-component_of_WINDS"},"data":[0,0,0,0,0,0,0,0,0,0,0,0,0,0,0,0,0,0,0,0,0,0,0,0,0,0,0,0,0,0,0,0,0,0,0,0,0,0,0,0,0,0,0,0,0,0,0,0,0,0,0,0,0,0,0,0,0,0,0.7644,0.7644,0,0.76,0.7599,0.7599,0.7583,0.7583,0.7583,0.7584,0.7533,0.7531,0.753,0,0,0,0,0,0,0,0,0,0,0,0,0,0.7712,0.7711,0.7644,0.7644,0.7643,0.76,0.7599,0.7598,0.7583,0.7583,0.7583,0.7584,0.7533,0.7532,0.753,0,0,0,0,0,0,0,0,0,0,0,0,0,0.7676,0.771,0.7644,0.763,0.7629,0.76,0.7599,0.7598,0.7583,0.7583,0.7584,0.7584,0.7534,0.7532,0.7529,0.751,0,0,0.7522,0.7521,0,0,0,0,0,0,0,0,0.7678,0.7674,0.7633,0.7631,0.7629,0.7597,0.7604,0.7568,0.7583,0.76,0.7584,0.7584,0.7554,0.755,0.7541,0.7507,0.7505,0.7522,0.7521,0.752,0.7519,0,0,0,0,0,0,0,0.7681,0.7676,0.7626,0.7632,0.763,0.7625,0.762,0.7597,0.7576,0.7599,0.7597,0.7593,0.7553,0.7543,0.7539,0.7504,0.7522,0.752,0.7519,0.7518,0.7453,0.7453,0,0,0,0,0,0,0.7686,0.7678,0.7628,0.7625,0.7655,0.7623,0.7618,0.7607,0.7576,0.7572,0.7592,0.7592,0.7547,0.7542,0.7537,0.7513,0.752,0.7518,0.7516,0.7453,0.7453,0.7452,0,0,0,0,0,0,0.7688,0.7682,0.763,0.7651,0.7644,0.7622,0.761,0.7606,0.7596,0.7571,0.7567,0.7587,0.7547,0.7541,0.7517,0.7511,0.7517,0.7515,0.7454,0.7453,0.7453,0.7463,0,0,0,0,0,0,0.769,0.7683,0.7676,0.7651,0.7643,0.7611,0.7609,0.7605,0.7593,0.7592,0.7565,0.756,0.7546,0.7521,0.7515,0.7508,0.7513,0.7454,0.7453,0.7453,0.7463,0.7463,0.7462,0,0,0,0,0,0.7692,0.7679,0.7676,0.767,0.7634,0.7611,0.7606,0.7592,0.7593,0.7585,0.7569,0.7561,0.7513,0.7518,0.7512,0.7504,0.7454,0.7454,0.7453,0.7463,0.7463,0.7462,0,0,0,0,0,0,0.7702,0.7676,0.7671,0.765,0.7633,0.7609,0.7599,0.7592,0.7573,0.7573,0.7554,0.7548,0.7526,0.7512,0.7519,0.7483,0.7483,0.7481,0.7493,0.7492,0.7492,0.7496,0.7511,0,0,0,0,0,0.7702,0.7687,0.7664,0.7648,0.764,0.7621,0.761,0.7601,0.7581,0.7574,0.7556,0.7536,0.7516,0.7504,0.7484,0.7461,0.7455,0.7452,0.7452,0.7452,0.745,0.7437,0.7436,0.745,0.745,0.745,0,0,0.7701,0.7685,0.7676,0.7649,0.7635,0.7618,0.7615,0.7597,0.7584,0.757,0.7548,0.7534,0.7511,0.7488,0.7476,0.7476,0.7445,0.7451,0.7451,0.7449,0.7436,0.7435,0.7433,0.7449,0.7449,0.7449,0,0,0.7691,0.7678,0.7663,0.7649,0.7628,0.7616,0.7612,0.7589,0.758,0.7557,0.7547,0.753,0.7497,0.7481,0.7468,0.7454,0.7446,0.7448,0.7446,0.7434,0.7432,0.7431,0.7426,0.7424,0.7446,0.7446,0.7446,0,0.7692,0.7668,0.7655,0.7639,0.7627,0.7616,0.76,0.7587,0.756,0.7551,0.7551,0.751,0.7493,0.7466,0.7463,0.7453,0.7448,0.745,0.7434,0.7433,0.7431,0.7426,0.7424,0.7446,0.7446,0.7446,0.7446,0,0.7671,0.7654,0.7645,0.7621,0.7608,0.7592,0.7576,0.7564,0.7556,0.7543,0.752,0.75,0.7477,0.7469,0.746,0.7441,0.7441,0.7438,0.7437,0.7431,0.7425,0.7423,0.7447,0.7447,0.7447,0.7447,0,0,0.7665,0.7636,0.7632,0.7622,0.7598,0.7585,0.7568,0.7547,0.7537,0.7518,0.7503,0.7476,0.7473,0.7458,0.7448,0.7437,0.7426,0.7434,0.7433,0.7433,0.7404,0.7406,0.7404,0.7421,0.7421,0.742,0.7406,0,0.7652,0.7623,0.7612,0.7588,0.7572,0.7562,0.7547,0.753,0.7518,0.7502,0.7487,0.7468,0.7466,0.7457,0.7446,0.743,0.742,0.7431,0.7406,0.7405,0.7412,0.7401,0.7404,0.7391,0.7403,0.7403,0.7403,0,0.7633,0.7617,0.7592,0.7571,0.7564,0.7551,0.7531,0.7517,0.7497,0.7489,0.7474,0.7464,0.7445,0.7446,0.7418,0.7426,0.7415,0.7406,0.7405,0.7401,0.7403,0.7398,0.7387,0.7385,0.7399,0.74,0.74,0,0.7631,0.7603,0.7585,0.7576,0.7551,0.7543,0.7531,0.7513,0.7501,0.7483,0.7475,0.7454,0.7442,0.7426,0.741,0.7412,0.7384,0.7384,0.7376,0.7376,0.737,0.737,0.7357,0.7363,0.7363,0.7363,0.7363,0,0.7618,0.7603,0.7584,0.7573,0.7556,0.7542,0.7525,0.7512,0.7496,0.7481,0.747,0.7456,0.7436,0.742,0.7407,0.7386,0.7381,0.7373,0.737,0.7374,0.7375,0.7366,0.7366,0.7363,0.7363,0.7363,0.7363,0,0.7613,0.76,0.7579,0.7558,0.7552,0.7541,0.7522,0.751,0.7498,0.7479,0.7474,0.7454,0.7434,0.7417,0.7389,0.7381,0.7359,0.7355,0.7366,0.7365,0.7357,0.7358,0.7337,0.7334,0.7343,0.7343,0.7343,0,0.7605,0.7594,0.7572,0.7563,0.7552,0.7536,0.7525,0.7511,0.7499,0.7476,0.7467,0.7446,0.7429,0.7397,0.7379,0.7358,0.7353,0.7348,0.735,0.7355,0.7353,0.7354,0.7352,0.7347,0.7347,0.7347,0.7347,0,0.7593,0.7587,0.7572,0.7555,0.7542,0.7527,0.7511,0.7504,0.7486,0.7473,0.7454,0.744,0.7414,0.7393,0.737,0.7357,0.7349,0.7347,0.7344,0.7347,0.7354,0.735,0.7366,0.7347,0.7347,0.7347,0.7347,0.7347,0.7586,0.7576,0.756,0.7543,0.753,0.7516,0.7504,0.7492,0.7475,0.7454,0.7446,0.7425,0.7406,0.7375,0.7362,0.7345,0.7344,0.7339,0.7338,0.7337,0.7338,0.7358,0.7341,0.7341,0.7341,0.7341,0.7341,0,0.7573,0.7563,0.7548,0.7528,0.7514,0.751,0.7493,0.7481,0.7464,0.7448,0.7432,0.7409,0.7389,0.737,0.7349,0.7339,0.7335,0.7334,0.7334,0.7331,0.734,0.7345,0.7338,0.7338,0.7338,0.7338,0.7338,0.7338,0.7565,0.7548,0.754,0.7516,0.7505,0.7486,0.7477,0.7463,0.745,0.7426,0.741,0.7399,0.7381,0.7359,0.734,0.7335,0.7327,0.7328,0.7321,0.733,0.733,0.7331,0.7335,0.7326,0.7326,0.7314,0.7314,0.7313]}]]